This is the latest recevied weather packets stored in our database for station/object G4MDP-13. If no packets are shown the sender has not sent any weather packets the latest 1 day(s).
| Time | Temp. | Humidity | Pressure | Rain* | Wind** | Luminosity | Snow |
|---|---|---|---|---|---|---|---|
| 1778020458 | 12.22° C | 60% | 1005.9 hPa | 0 mm | 1.79 m/s, 147° | - | - |
| 1778019558 | 12.78° C | 58% | 1006 hPa | 0 mm | 1.79 m/s, 153° | - | - |
| 1778019557 | 12.78° C | 58% | 1006 hPa | 0 mm | 1.79 m/s, 153° | - | - |
| 1778018717 | 12.78° C | 57% | 1005.9 hPa | 0 mm | 1.79 m/s, 152° | - | - |
| 1778018658 | 12.78° C | 58% | 1005.9 hPa | 0 mm | 1.79 m/s, 151° | - | - |
| 1778017758 | 13.33° C | 59% | 1005.9 hPa | 0 mm | 1.79 m/s, 155° | - | - |
| 1778017757 | 13.33° C | 59% | 1005.9 hPa | 0 mm | 1.79 m/s, 155° | - | - |
| 1778016917 | 13.33° C | 63% | 1005.9 hPa | 0 mm | 1.79 m/s, 162° | - | - |
| 1778016858 | 13.33° C | 63% | 1005.7 hPa | 0 mm | 1.79 m/s, 159° | - | - |
| 1778015958 | 13.33° C | 61% | 1005.8 hPa | 0 mm | 1.79 m/s, 153° | - | - |
| 1778015957 | 13.33° C | 61% | 1005.8 hPa | 0 mm | 1.79 m/s, 153° | - | - |
| 1778015117 | 13.89° C | 61% | 1005.6 hPa | 0 mm | 2.24 m/s, 153° | - | - |
| 1778014158 | 13.89° C | 63% | 1005.5 hPa | 0 mm | 1.79 m/s, 154° | - | - |
| 1778014157 | 13.89° C | 63% | 1005.5 hPa | 0 mm | 1.79 m/s, 154° | - | - |
| 1778013317 | 13.89° C | 62% | 1005.4 hPa | 0 mm | 1.79 m/s, 150° | - | - |
| 1778013258 | 13.89° C | 62% | 1005.5 hPa | 0 mm | 1.79 m/s, 151° | - | - |
| 1778012358 | 13.89° C | 61% | 1005.4 hPa | 0 mm | 1.79 m/s, 153° | - | - |
| 1778012357 | 13.89° C | 61% | 1005.4 hPa | 0 mm | 1.79 m/s, 153° | - | - |
| 1778011517 | 13.89° C | 66% | 1005.5 hPa | 0 mm | 1.79 m/s, 156° | - | - |
| 1778011460 | 13.89° C | 66% | 1005.4 hPa | 0 mm | 1.79 m/s, 157° | - | - |
| 1778011458 | 13.89° C | 66% | 1005.4 hPa | 0 mm | 1.79 m/s, 157° | - | - |
| 1778010558 | 13.89° C | 71% | 1005.2 hPa | 0 mm | 1.79 m/s, 159° | - | - |
| 1778010557 | 13.89° C | 71% | 1005.2 hPa | 0 mm | 1.79 m/s, 159° | - | - |
| 1778009717 | 14.44° C | 73% | 1005.1 hPa | 0 mm | 1.79 m/s, 156° | - | - |
| 1778009660 | 14.44° C | 73% | 1004.9 hPa | 0 mm | 1.79 m/s, 157° | - | - |
* Rain latest hour (hover to see other rain measurements)
** Current wind speed in m/s (hover to see current wind gust speed)